Location: Aragoneses
(41.0275°N, 4.3847°W)
Time: 14:02:13
(UTC+00:00)

BlueWalker 3 - Pass Details

Date: 19 February 2026
Orbit: 451 x 457 km, 53.2° (Epoch: 14 March)

Event Time Altitude Azimuth Distance (km) Brightness Sun altitude
Rises 06:34:24 0° 182° (S) 2,458 5.5 -6.8°
Reaches altitude 10° 06:37:35 10° 151° (SSE) 1,590 5.1 -6.2°
Maximum altitude 06:39:06 12° 126° (SE) 1,457 5.4 -5.9°
Drops below altitude 10° 06:40:36 10° 101° (E) 1,593 6.4 -5.6°
Sets 06:43:48 0° 70° (ENE) 2,470 6.6 -5.0°
